Regional Weather Roundup
Issued by NWS

Home | Current Version | Previous Version | Graphics & Text | Print | Product List | Glossary On
Versions: 1 2 3 4 5 6 7 8 9 10 11 12 13 14 15 16 17 18 19 20 21 22 23 24 25 26 27 28 29 30 31 32 33 34 35 36 37 38 39 40 41 42 43 44 45 46 47 48 49 50
000
ASUS43 KLMK 300202
RWRKY
KENTUCKY REGIONAL WEATHER ROUNDUP
NATIONAL WEATHER SERVICE LOUISVILLE KY
1000 PM EDT WED JUL 29 2015

NOTE "FAIR" INDICATES FEW OR NO CLOUDS BELOW 12,000 FEET
WITH NO SIGNIFICANT WEATHER AND/OR OBSTRUCTIONS TO VISIBILITY.

KYZ001>023-026-027-061>063-070>075-300300-
WESTERN AND SOUTH CENTRAL KENTUCKY

CITY           SKY/WX    TMP DP  RH WIND       PRES   REMARKS
PADUCAH        CLOUDY    83  76  79 NW5       30.01R HX  91
HENDERSON      CLOUDY    82  75  78 N5        30.00R
OWENSBORO      CLOUDY    82  78  88 VRB5      30.01R HX  91
HOPKINSVILLE   DRIZZLE   76  70  82 S6        30.02R
BOWLING GREEN  CLOUDY    77  73  87 E7        30.04R
GLASGOW        NOT AVBL
$$

KYZ024-025-028>034-038-045-046-053-300300-
NORTH CENTRAL KENTUCKY

CITY           SKY/WX    TMP DP  RH WIND       PRES   REMARKS
LOUISVILLE/SDF CLOUDY    78  70  76 S5        30.00R
LOUISVILLE/LOU CLOUDY    77  70  79 CALM      30.01R
FORT KNOX      NOT AVBL
$$

KYZ035>037-039>044-047>052-055>060-089>105-300300-
NORTHEAST KENTUCKY

CITY           SKY/WX    TMP DP  RH WIND       PRES   REMARKS
LEXINGTON      LGT RAIN  72  70  93 W5        30.02R
COVINGTON      CLOUDY    75  73  93 W5        29.99R
FRANKFORT      CLOUDY    72  70  93 SW5       30.01R
$$

KYZ054-064>069-076>088-106>120-300300-
SOUTHEAST KENTUCKY

CITY           SKY/WX    TMP DP  RH WIND       PRES   REMARKS
JACKSON        MOCLDY    79  74  84 CALM      30.01S
LONDON         PTCLDY    83  71  67 CALM      30.02R
SOMERSET       NOT AVBL
MIDDLESBORO    NOT AVBL
MONTICELLO     PTCLDY    80  71  74 N20G29    30.07R THUNDER
$$



USA.gov is the U.S. government's official web portal to all federal, state and local government web resources and services.